# Tabular Observed and Forecast Hydrograph Information
#
# Location: San Benito River - Hospital Rd Br Nr Hollister (HOSC1)
#
# File Generation Time: 05/07/2026 at 07:38 AM PDT
# Data Interval: 1 Hour
#
# Most Recent Date & Time of Maximum Observed: 05/02/2026 at 11:00 AM PDT
# Maximum Observed Stage: 6.69 Feet
# Maximum Observed Flow: 3 cfs
#
# Earliest Date & Time of Maximum Forecast: 05/07/2026 at 12:00 PM PDT
# Maximum Forecast Stage: 6.63 Feet
# Maximum Forecast Flow: 2 cfs
#
# OBSERVED
#
# Date & Time (Local) Stage (Feet) Flow (cfs) Trend Observed Status
# ---------------------------------------------------------------------------------
05/02/2026 07 AM PDT 6.69 3 Not Applicable
05/02/2026 08 AM PDT 6.68 3 - Not Applicable
05/02/2026 09 AM PDT 6.69 3 + Not Applicable
05/02/2026 10 AM PDT 6.69 3 0 Not Applicable
05/02/2026 11 AM PDT 6.69 3 0 Not Applicable
05/02/2026 12 PM PDT 6.68 3 - Not Applicable
05/02/2026 01 PM PDT 6.68 3 0 Not Applicable
05/02/2026 02 PM PDT 6.67 3 - Not Applicable
05/02/2026 03 PM PDT 6.67 3 0 Not Applicable
05/02/2026 04 PM PDT 6.67 3 0 Not Applicable
05/02/2026 05 PM PDT 6.66 3 - Not Applicable
05/02/2026 06 PM PDT 6.66 3 0 Not Applicable
05/02/2026 07 PM PDT 6.66 3 0 Not Applicable
05/02/2026 08 PM PDT 6.65 3 - Not Applicable
05/02/2026 09 PM PDT 6.66 3 + Not Applicable
05/02/2026 10 PM PDT 6.65 3 - Not Applicable
05/02/2026 11 PM PDT 6.65 3 0 Not Applicable
05/03/2026 12 AM PDT 6.65 3 0 Not Applicable
05/03/2026 01 AM PDT 6.65 3 0 Not Applicable
05/03/2026 02 AM PDT 6.64 2 - Not Applicable
05/03/2026 03 AM PDT 6.64 2 0 Not Applicable
05/03/2026 04 AM PDT 6.64 2 0 Not Applicable
05/03/2026 05 AM PDT 6.64 2 0 Not Applicable
05/03/2026 06 AM PDT 6.64 2 0 Not Applicable
05/03/2026 07 AM PDT 6.64 2 0 Not Applicable
05/03/2026 08 AM PDT 6.64 2 0 Not Applicable
05/03/2026 09 AM PDT 6.64 2 0 Not Applicable
05/03/2026 10 AM PDT 6.65 3 + Not Applicable
05/03/2026 11 AM PDT 6.65 3 0 Not Applicable
05/03/2026 12 PM PDT 6.65 3 0 Not Applicable
05/03/2026 01 PM PDT 6.65 3 0 Not Applicable
05/03/2026 02 PM PDT 6.64 2 - Not Applicable
05/03/2026 03 PM PDT 6.64 2 0 Not Applicable
05/03/2026 04 PM PDT 6.64 2 0 Not Applicable
05/03/2026 05 PM PDT 6.64 2 0 Not Applicable
05/03/2026 06 PM PDT 6.62 2 - Not Applicable
05/03/2026 07 PM PDT 6.62 2 0 Not Applicable
05/03/2026 08 PM PDT 6.62 2 0 Not Applicable
05/03/2026 09 PM PDT 6.62 2 0 Not Applicable
05/03/2026 10 PM PDT 6.62 2 0 Not Applicable
05/03/2026 11 PM PDT 6.62 2 0 Not Applicable
05/04/2026 12 AM PDT 6.61 2 - Not Applicable
05/04/2026 01 AM PDT 6.61 2 0 Not Applicable
05/04/2026 02 AM PDT 6.61 2 0 Not Applicable
05/04/2026 03 AM PDT 6.61 2 0 Not Applicable
05/04/2026 04 AM PDT 6.61 2 0 Not Applicable
05/04/2026 05 AM PDT 6.61 2 0 Not Applicable
05/04/2026 06 AM PDT 6.61 2 0 Not Applicable
05/04/2026 07 AM PDT 6.61 2 0 Not Applicable
05/04/2026 08 AM PDT 6.61 2 0 Not Applicable
05/04/2026 09 AM PDT 6.61 2 0 Not Applicable
05/04/2026 10 AM PDT 6.60 2 - Not Applicable
05/04/2026 11 AM PDT 6.59 2 - Not Applicable
05/04/2026 12 PM PDT 6.57 1 - Not Applicable
05/04/2026 01 PM PDT 6.57 1 0 Not Applicable
05/04/2026 02 PM PDT 6.53 1 - Not Applicable
05/04/2026 03 PM PDT 6.53 1 0 Not Applicable
05/04/2026 04 PM PDT 6.46 0 - Not Applicable
05/04/2026 05 PM PDT 6.41 0 - Not Applicable
05/04/2026 06 PM PDT 6.41 0 0 Not Applicable
05/04/2026 07 PM PDT 6.41 0 0 Not Applicable
05/04/2026 08 PM PDT 6.41 0 0 Not Applicable
05/04/2026 09 PM PDT 6.41 0 0 Not Applicable
05/04/2026 10 PM PDT 6.41 0 0 Not Applicable
05/04/2026 11 PM PDT 6.41 0 0 Not Applicable
05/05/2026 12 AM PDT 6.41 0 0 Not Applicable
05/05/2026 01 AM PDT 6.41 0 0 Not Applicable
05/05/2026 02 AM PDT 6.60 2 + Not Applicable
05/05/2026 03 AM PDT 6.60 2 0 Not Applicable
05/05/2026 04 AM PDT 6.59 2 - Not Applicable
05/05/2026 05 AM PDT 6.58 1 - Not Applicable
05/05/2026 06 AM PDT 6.57 1 - Not Applicable
05/05/2026 07 AM PDT 6.57 1 0 Not Applicable
05/05/2026 08 AM PDT 6.58 1 + Not Applicable
05/05/2026 09 AM PDT 6.59 2 + Not Applicable
05/05/2026 10 AM PDT 6.59 2 0 Not Applicable
05/05/2026 11 AM PDT 6.60 2 + Not Applicable
05/05/2026 12 PM PDT 6.60 2 0 Not Applicable
05/05/2026 01 PM PDT 6.61 2 + Not Applicable
05/05/2026 02 PM PDT 6.61 2 0 Not Applicable
05/05/2026 03 PM PDT 6.61 2 0 Not Applicable
05/05/2026 04 PM PDT 6.61 2 0 Not Applicable
05/05/2026 05 PM PDT 6.61 2 0 Not Applicable
05/05/2026 06 PM PDT 6.61 2 0 Not Applicable
05/05/2026 07 PM PDT 6.61 2 0 Not Applicable
05/05/2026 08 PM PDT 6.61 2 0 Not Applicable
05/05/2026 09 PM PDT 6.61 2 0 Not Applicable
05/05/2026 10 PM PDT 6.60 2 - Not Applicable
05/05/2026 11 PM PDT 6.60 2 0 Not Applicable
05/06/2026 12 AM PDT 6.60 2 0 Not Applicable
05/06/2026 01 AM PDT 6.60 2 0 Not Applicable
05/06/2026 02 AM PDT 6.60 2 0 Not Applicable
05/06/2026 03 AM PDT 6.60 2 0 Not Applicable
05/06/2026 04 AM PDT 6.60 2 0 Not Applicable
05/06/2026 05 AM PDT 6.60 2 0 Not Applicable
05/06/2026 06 AM PDT 6.60 2 0 Not Applicable
05/06/2026 07 AM PDT 6.60 2 0 Not Applicable
05/06/2026 08 AM PDT 6.60 2 0 Not Applicable
05/06/2026 09 AM PDT 6.61 2 + Not Applicable
05/06/2026 10 AM PDT 6.60 2 - Not Applicable
05/06/2026 11 AM PDT 6.49 0 - Not Applicable
05/06/2026 12 PM PDT 6.49 0 0 Not Applicable
05/06/2026 01 PM PDT 6.49 0 0 Not Applicable
05/06/2026 02 PM PDT 6.48 0 - Not Applicable
05/06/2026 03 PM PDT 6.47 0 - Not Applicable
05/06/2026 04 PM PDT 6.52 1 + Not Applicable
05/06/2026 05 PM PDT 6.50 1 - Not Applicable
05/06/2026 06 PM PDT 6.51 1 + Not Applicable
05/06/2026 07 PM PDT 6.48 0 - Not Applicable
05/06/2026 08 PM PDT 6.48 0 0 Not Applicable
05/06/2026 09 PM PDT 6.46 0 - Not Applicable
05/06/2026 10 PM PDT 6.45 0 - Not Applicable
05/06/2026 11 PM PDT 6.46 0 + Not Applicable
05/07/2026 12 AM PDT 6.50 1 + Not Applicable
05/07/2026 01 AM PDT 6.55 1 + Not Applicable
05/07/2026 02 AM PDT 6.57 1 + Not Applicable
05/07/2026 03 AM PDT 6.59 2 + Not Applicable
05/07/2026 04 AM PDT 6.60 2 + Not Applicable
05/07/2026 05 AM PDT 6.60 2 0 Not Applicable
05/07/2026 06 AM PDT 6.61 2 + Not Applicable
05/07/2026 07 AM PDT 6.61 2 0 Not Applicable
#
# FORECAST
#
# Date & Time (Local) Stage (Feet) Flow (cfs) Trend Forecast Status
# ---------------------------------------------------------------------------------
05/07/2026 08 AM PDT 6.61 2 Not Applicable
05/07/2026 09 AM PDT 6.62 2 + Not Applicable
05/07/2026 10 AM PDT 6.62 2 0 Not Applicable
05/07/2026 11 AM PDT 6.62 2 0 Not Applicable
05/07/2026 12 PM PDT 6.63 2 + Not Applicable
05/07/2026 01 PM PDT 6.63 2 0 Not Applicable
05/07/2026 02 PM PDT 6.63 2 0 Not Applicable
05/07/2026 03 PM PDT 6.63 2 0 Not Applicable
05/07/2026 04 PM PDT 6.63 2 0 Not Applicable
05/07/2026 05 PM PDT 6.62 2 - Not Applicable
05/07/2026 06 PM PDT 6.62 2 0 Not Applicable
05/07/2026 07 PM PDT 6.62 2 0 Not Applicable
05/07/2026 08 PM PDT 6.62 2 0 Not Applicable
05/07/2026 09 PM PDT 6.61 2 - Not Applicable
05/07/2026 10 PM PDT 6.60 2 - Not Applicable
05/07/2026 11 PM PDT 6.60 2 0 Not Applicable
05/08/2026 12 AM PDT 6.59 2 - Not Applicable
05/08/2026 01 AM PDT 6.58 1 - Not Applicable
05/08/2026 02 AM PDT 6.58 1 0 Not Applicable
05/08/2026 03 AM PDT 6.57 1 - Not Applicable
05/08/2026 04 AM PDT 6.56 1 - Not Applicable
05/08/2026 05 AM PDT 6.56 1 0 Not Applicable
05/08/2026 06 AM PDT 6.55 1 - Not Applicable
05/08/2026 07 AM PDT 6.54 1 - Not Applicable
05/08/2026 08 AM PDT 6.54 1 0 Not Applicable
05/08/2026 09 AM PDT 6.54 1 0 Not Applicable
05/08/2026 10 AM PDT 6.53 1 - Not Applicable
05/08/2026 11 AM PDT 6.53 1 0 Not Applicable
05/08/2026 12 PM PDT 6.52 1 - Not Applicable
05/08/2026 01 PM PDT 6.52 1 0 Not Applicable
05/08/2026 02 PM PDT 6.52 1 0 Not Applicable
05/08/2026 03 PM PDT 6.51 1 - Not Applicable
05/08/2026 04 PM PDT 6.51 1 0 Not Applicable
05/08/2026 05 PM PDT 6.51 1 0 Not Applicable
05/08/2026 06 PM PDT 6.51 1 0 Not Applicable
05/08/2026 07 PM PDT 6.50 1 - Not Applicable
05/08/2026 08 PM PDT 6.50 1 0 Not Applicable
05/08/2026 09 PM PDT 6.50 1 0 Not Applicable
05/08/2026 10 PM PDT 6.50 1 0 Not Applicable
05/08/2026 11 PM PDT 6.50 1 0 Not Applicable
05/09/2026 12 AM PDT 6.50 1 0 Not Applicable
05/09/2026 01 AM PDT 6.49 0 - Not Applicable
05/09/2026 02 AM PDT 6.49 0 0 Not Applicable
05/09/2026 03 AM PDT 6.49 0 0 Not Applicable
05/09/2026 04 AM PDT 6.49 0 0 Not Applicable
05/09/2026 05 AM PDT 6.49 0 0 Not Applicable
05/09/2026 06 AM PDT 6.49 0 0 Not Applicable
05/09/2026 07 AM PDT 6.49 0 0 Not Applicable
05/09/2026 08 AM PDT 6.48 0 - Not Applicable
05/09/2026 09 AM PDT 6.48 0 0 Not Applicable
05/09/2026 10 AM PDT 6.48 0 0 Not Applicable
05/09/2026 11 AM PDT 6.48 0 0 Not Applicable
05/09/2026 12 PM PDT 6.48 0 0 Not Applicable
05/09/2026 01 PM PDT 6.48 0 0 Not Applicable
05/09/2026 02 PM PDT 6.48 0 0 Not Applicable
05/09/2026 03 PM PDT 6.47 0 - Not Applicable
05/09/2026 04 PM PDT 6.47 0 0 Not Applicable
05/09/2026 05 PM PDT 6.47 0 0 Not Applicable
05/09/2026 06 PM PDT 6.47 0 0 Not Applicable
05/09/2026 07 PM PDT 6.47 0 0 Not Applicable
05/09/2026 08 PM PDT 6.47 0 0 Not Applicable
05/09/2026 09 PM PDT 6.46 0 - Not Applicable
05/09/2026 10 PM PDT 6.46 0 0 Not Applicable
05/09/2026 11 PM PDT 6.46 0 0 Not Applicable
05/10/2026 12 AM PDT 6.46 0 0 Not Applicable
05/10/2026 01 AM PDT 6.46 0 0 Not Applicable
05/10/2026 02 AM PDT 6.46 0 0 Not Applicable
05/10/2026 03 AM PDT 6.46 0 0 Not Applicable
05/10/2026 04 AM PDT 6.45 0 - Not Applicable
05/10/2026 05 AM PDT 6.45 0 0 Not Applicable
05/10/2026 06 AM PDT 6.45 0 0 Not Applicable
05/10/2026 07 AM PDT 6.45 0 0 Not Applicable
05/10/2026 08 AM PDT 6.45 0 0 Not Applicable
05/10/2026 09 AM PDT 6.45 0 0 Not Applicable
05/10/2026 10 AM PDT 6.45 0 0 Not Applicable
05/10/2026 11 AM PDT 6.44 0 - Not Applicable
05/10/2026 12 PM PDT 6.44 0 0 Not Applicable
05/10/2026 01 PM PDT 6.44 0 0 Not Applicable
05/10/2026 02 PM PDT 6.44 0 0 Not Applicable
05/10/2026 03 PM PDT 6.43 0 - Not Applicable
05/10/2026 04 PM PDT 6.43 0 0 Not Applicable
05/10/2026 05 PM PDT 6.43 0 0 Not Applicable
05/10/2026 06 PM PDT 6.43 0 0 Not Applicable
05/10/2026 07 PM PDT 6.42 0 - Not Applicable
05/10/2026 08 PM PDT 6.42 0 0 Not Applicable
05/10/2026 09 PM PDT 6.41 0 - Not Applicable
05/10/2026 10 PM PDT 6.41 0 0 Not Applicable
05/10/2026 11 PM PDT 6.41 0 0 Not Applicable
05/11/2026 12 AM PDT 6.41 0 0 Not Applicable
05/11/2026 01 AM PDT 6.41 0 0 Not Applicable
05/11/2026 02 AM PDT 6.41 0 0 Not Applicable
05/11/2026 03 AM PDT 6.41 0 0 Not Applicable
05/11/2026 04 AM PDT 6.41 0 0 Not Applicable
05/11/2026 05 AM PDT 6.41 0 0 Not Applicable
05/11/2026 06 AM PDT 6.41 0 0 Not Applicable
05/11/2026 07 AM PDT 6.41 0 0 Not Applicable
05/11/2026 08 AM PDT 6.41 0 0 Not Applicable
05/11/2026 09 AM PDT 6.41 0 0 Not Applicable
05/11/2026 10 AM PDT 6.41 0 0 Not Applicable
05/11/2026 11 AM PDT 6.41 0 0 Not Applicable
05/11/2026 12 PM PDT 6.41 0 0 Not Applicable
05/11/2026 01 PM PDT 6.41 0 0 Not Applicable
05/11/2026 02 PM PDT 6.41 0 0 Not Applicable
05/11/2026 03 PM PDT 6.41 0 0 Not Applicable
05/11/2026 04 PM PDT 6.41 0 0 Not Applicable
05/11/2026 05 PM PDT 6.41 0 0 Not Applicable
05/11/2026 06 PM PDT 6.41 0 0 Not Applicable
05/11/2026 07 PM PDT 6.41 0 0 Not Applicable
05/11/2026 08 PM PDT 6.41 0 0 Not Applicable
05/11/2026 09 PM PDT 6.41 0 0 Not Applicable
05/11/2026 10 PM PDT 6.41 0 0 Not Applicable
05/11/2026 11 PM PDT 6.41 0 0 Not Applicable
05/12/2026 12 AM PDT 6.41 0 0 Not Applicable
05/12/2026 01 AM PDT 6.41 0 0 Not Applicable
05/12/2026 02 AM PDT 6.41 0 0 Not Applicable
05/12/2026 03 AM PDT 6.41 0 0 Not Applicable
05/12/2026 04 AM PDT 6.41 0 0 Not Applicable
05/12/2026 05 AM PDT 6.41 0 0 Not Applicable
#
# NOTE 1: Stages are rounded to the nearest hundredth (.01) of a foot.
# NOTE 2: Flows are rounded to the nearest (1) cfs.
# NOTE 3: Trends are determined using hourly change in unrounded stage and flow.
# NOTE 4: Maximum Values are determined using unrounded stage and flow.
|